Preview of NWS' New Version of Forecast
This preview is not operational and should not be used for support decisions.
Latest weather observations around

Canton, Cherokee County Airport (KCNI)

Using English Units (Switch to International System of Units)
Date/ Time (EST) Wind (mph) Vis. (mi) Weather Sky Cond. Temp (°F) Rel. Humidity Wind Chill (°F) Heat Index (°F) Pressure Precip. (in)
Air Dwpt 6 hour Altimeter (inHg) Sea level (inHg) 1 hr 3 hr 6 hr
Max Min
Notice The following observation data may not be complete
Dec 13 08:15   10 Mostly Cloudy BKN025          %              
Dec 13 07:55 Calm 10 Cloudy OVC025 36 32     87%              
Dec 13 07:35 Calm 10 Cloudy OVC025 34 32     93%     30.23        
Dec 13 07:15 Calm 10 Partly Cloudy SCT025 34 30     86%     30.23        
Dec 13 06:55 Calm 10 Clear CLR 34 32     93%     30.22        
Dec 13 06:35 Calm 10 Clear CLR 32 30     93%     30.21        
Dec 13 06:15 Calm 10 Clear CLR 34 32     93%     30.2        
Dec 13 05:55 Calm 10 Clear CLR 32 30     93%     30.2        
Dec 13 05:35 Calm 10 Clear CLR 34 32     93%     30.19        
Dec 13 05:15 Calm 7 Clear CLR 32 30     93%     30.2        
Dec 13 04:55 Calm 10 Clear CLR 34 30     86%     30.19        
Dec 13 04:35 Calm 10 Clear CLR 34 30     86%     30.19        
Dec 13 04:15 Calm 10 Clear CLR 36 30     81%     30.19        
Dec 13 03:55 NE 3 10 Clear CLR 34 32     93% 31   30.19        
Dec 13 03:35 NE 3 10 Clear CLR 34 32     93% 31   30.19        
Dec 13 03:15 NNE 3 10 Clear CLR 34 30     86% 31   30.2        
Dec 13 02:55 Calm 10 Clear CLR 36 32     87%     30.2        
Dec 13 02:35 Calm 10 Clear CLR 36 30     81%     30.21        
Dec 13 02:15 N 3 10 Clear CLR 36 30     81% 33   30.19        
Dec 13 01:55 NNE 3 10 Clear CLR 36 32     87% 33   30.19        
Dec 13 01:35 Calm 10 Clear CLR 36 30     81%     30.2        
Dec 13 01:15 Calm 10 Clear CLR 36 30     81%     30.19        
Dec 13 00:55 Calm 10 Clear CLR 37 32     81%     30.2        
Dec 13 00:35 Calm 10 Partly Cloudy SCT110 37 30     75%     30.19        
Dec 13 00:15 N 5 10 Partly Cloudy SCT100 36 30     81% 32   30.19        
Dec 12 23:55 N 3 10 Partly Cloudy SCT110 37 32     81% 35   30.19        
Dec 12 23:35 Calm 10 Partly Cloudy SCT110 36 30     81%     30.2        
Dec 12 23:15 Calm 10 Clear CLR 37 32     81%     30.19        
Dec 12 22:55 ENE 3 10 Clear CLR 37 32     81% 35   30.2        
Dec 12 22:35 Calm 10 Clear CLR 37 32     81%     30.21        
Dec 12 22:15 Calm 10 Clear CLR 37 32     81%     30.2        
Dec 12 21:55 Calm 10 Clear CLR 39 32     75%     30.21        
Dec 12 21:35 Calm 10 Clear CLR 41 32     70%     30.21        
Dec 12 21:15 NE 3 10 Clear CLR 37 32     81% 35   30.21        
Dec 12 20:55 Calm 10 Clear CLR 37 32     81%     30.21        
Dec 12 20:35 Calm 10 Clear CLR 39 32     75%     30.21        
Dec 12 20:15 Calm 10 Clear CLR 41 30     65%     30.21        
Dec 12 19:55 Calm 10 Clear CLR 41 30     65%     30.21        
Dec 12 19:35 Calm 10 Clear CLR 43 30     61%     30.21        
Dec 12 19:15 Calm 10 Clear CLR 45 30     57%     30.21        
Dec 12 18:55 Calm 10 Clear CLR 43 30     61%     30.2        
Dec 12 18:35 Calm 10 Clear CLR 45 27     49%     30.19        
Dec 12 18:15 Calm 10 Clear CLR 45 27     49%     30.19        
Dec 12 17:55 Calm 10 Clear CLR 46 25     42%     30.19        
Dec 12 17:35 Calm 10 Clear CLR 46 23     39%     30.19        
Dec 12 17:15 Calm 10 Clear CLR 46 25     42%     30.18        
Dec 12 16:55 Calm 10 Clear CLR 48 23     37%     30.18        
Dec 12 16:35 Calm 10 Clear CLR 50 23     34%     30.18        
Dec 12 16:15 SW 5 10 Clear CLR 50 21     32%     30.18        
Dec 12 15:55 SSW 7 10 Clear CLR 50 21     32%     30.18        
Dec 12 15:35 SSW 5 10 Clear CLR 50 23     34%     30.18        
Dec 12 15:15 WSW 6 10 Clear CLR 50        %     30.18        
Dec 12 14:55 Calm 10 Clear CLR 50        %     30.17        
Dec 12 14:35 W 5 10 Clear CLR 50        %     30.18        
Dec 12 14:15 WNW 5 10 Clear CLR 50        %     30.18        
Dec 12 13:55 SW 5 10 Clear CLR 50        %     30.18        
Dec 12 13:35 Calm 10 Clear CLR 50 28     43%     30.19        
Dec 12 13:15 Calm 10 Clear CLR 48 28     46%     30.19        
Dec 12 12:55 Calm 10 Clear CLR 48 30     50%     30.19        
Dec 12 12:35 Calm 10 Clear CLR 46 28     49%     30.21        
Dec 12 12:15 WSW 5 10 Clear CLR 46 28     49% 44   30.21        
Dec 12 11:55 Calm 10 Clear CLR 45 32     61%     30.23        
Dec 12 11:35 Calm 10 Clear CLR 45 32     61%     30.23        
Dec 12 11:15 Calm 10 Clear CLR 43 32     65%     30.23        
Dec 12 10:55 Calm 10 Clear CLR 41 32     70%     30.23        
Dec 12 10:35 Calm 10 Clear CLR 41 32     70%     30.25        
Dec 12 10:15 Calm 10 Clear CLR 41 28     61%     30.26        
Dec 12 09:55 Calm 10 Clear CLR 37 28     70%     30.25        
Dec 12 09:35 Calm 10 Clear CLR 36 30     81%     30.25        
Dec 12 09:15 Calm 10 Clear CLR 36 28     75%     30.23        
Dec 12 08:55 SSW 3 10 Clear CLR 32 28     86% 29   30.23        
Dec 12 08:35 S 3 10 Clear CLR 32 27     80% 29   30.24        
Dec 12 08:15 Calm 10 Clear CLR 34 27     75%     30.22        
Dec 12 07:55 W 3 10 Clear CLR 32 27     80% 29   30.23        
Dec 12 07:35 W 3 10 Clear CLR 36 27     69% 33   30.23        
Dec 12 07:15 W 6 10 Clear CLR 32 25     74% 26   30.25        
Dec 12 06:55 W 5 10 Clear CLR 34 27     75% 29   30.23        
Dec 12 06:35 W 5 10 Clear CLR 34 27     75% 29   30.23        
Dec 12 06:15 W 6 10 Clear CLR 34 27     75% 29   30.23        
Dec 12 05:55 WNW 3 10 Clear CLR 34 27     75% 31   30.23        
Dec 12 05:35 WNW 3 10 Clear CLR 32 28     86% 29   30.23        
Dec 12 05:15 Calm 10 Clear CLR 30 23     74%     30.23        
Dec 12 04:55 Calm 10 Clear CLR 34 27     75%     30.22        
Dec 12 04:35 W 5 10 Clear CLR 32 27     80% 27   30.23        
Dec 12 04:15 W 3 10 Clear CLR 34 27     75% 31   30.23        
Dec 12 03:55 WNW 3 10 Clear CLR 34 25     69% 31   30.23        
Dec 12 03:35 WNW 5 10 Clear CLR 36 25     64% 32   30.23        
Dec 12 03:15 W 5 10 Clear CLR 36 25     64% 32   30.23        
Dec 12 02:55 WNW 6 10 Clear CLR 34 25     69% 29   30.23        
Dec 12 02:35 NW 5 10 Clear CLR 32 23     69% 27   30.23        
Dec 12 02:15 Calm 10 Clear CLR 32 23     69%     30.23        
Dec 12 01:55 WNW 3 10 Clear CLR 32 23     69% 29   30.23        
Dec 12 01:35 NW 5 10 Clear CLR 34 21     60% 29   30.23        
Dec 12 01:15 WNW 5 10 Clear CLR 34 21     60% 29   30.23        
Dec 12 00:55 WNW 3 10 Clear CLR 36 21     55% 33   30.23        
Notice The following observation data may not be complete
Dec 12 00:35 WNW 6 10 Clear CLR   21      %     30.23        
Dec 12 00:15 WNW 6 10 Clear CLR 36 21     55% 31   30.23        
Dec 11 23:55 WNW 5 10 Clear CLR 34 23     64% 29   30.24        
Dec 11 23:35 WNW 5 10 Clear CLR 34 23     64% 29   30.25        
Dec 11 23:15 Calm 10 Clear CLR 34 23     64%     30.25        
Dec 11 22:55 Calm 10 Clear CLR 36 21     55%     30.25        
Dec 11 22:35 WNW 3 10 Clear CLR 37 23     56% 35   30.25        
Dec 11 22:15 WNW 6 10 Clear CLR 37 25     60% 33   30.26        
Dec 11 21:55 WNW 5 10 Clear CLR 36 27     69% 32   30.26        
Dec 11 21:35 NW 5 10 Clear CLR 34 27     75% 29   30.26        
Dec 11 21:15 Calm 10 Clear CLR 36 27     69%     30.26        
Dec 11 20:55 W 3 10 Clear CLR 36 27     69% 33   30.26        
Dec 11 20:35 WNW 3 10 Clear CLR 36 27     69% 33   30.27        
Dec 11 20:15 Calm 10 Clear CLR 37 27     65%     30.26        
Dec 11 19:55 WNW 3 10 Clear CLR 37 25     60% 35   30.27        
Dec 11 19:35 Calm 10 Clear CLR 37 25     60%     30.26        
Dec 11 19:15 Calm 10 Clear CLR 43 21     42%     30.26        
Dec 11 18:55 W 5 10 Clear CLR 43 21     42% 40   30.27        
Dec 11 18:35 W 5 10 Clear CLR 43 21     42% 40   30.26        
Dec 11 18:15 W 6 10 Clear CLR 43 21     42% 39   30.26        
Dec 11 17:55 W 6 10 Clear CLR 45 21     39% 41   30.26        
Dec 11 17:35 W 6 10 Clear CLR 45 19     36% 41   30.25        
Dec 11 17:15 W 3 10 Clear CLR 46 18     31% 45   30.25        
Dec 11 16:55 W 6 10 Clear CLR 48        % 46   30.25        
Dec 11 16:35 W 8 10 Clear CLR 48        % 45   30.25        
Dec 11 16:15 W 7 10 Clear CLR 50        %     30.25        
Dec 11 15:55 W 9 10 Clear CLR 50        %     30.25        
Dec 11 15:35 W 6 10 Clear CLR 50        %     30.25        
Dec 11 15:15 WNW 8 10 Clear CLR 50        %     30.25        
Dec 11 14:55 WNW 8 10 Clear CLR 50        %     30.24        
Dec 11 14:35 W 10 10 Clear CLR 50        %     30.24        
Dec 11 14:15 WNW 9 10 Clear CLR 48 21     34% 44   30.24        
Dec 11 13:55 WNW 7 10 Clear CLR 48 23     37% 45   30.25        
Dec 11 13:35 W 8 10 Clear CLR 46 25     42% 42   30.26        
Dec 11 13:15 W 8 10 Clear CLR 46 28     49% 42   30.26        
Dec 11 12:55 W 9 10 Clear CLR 46 28     49% 42   30.26        
Dec 11 12:35 W 8 10 Clear CLR 45 28     53% 40   30.28        
Dec 11 12:15 WNW 7 10 Clear CLR 45 28     53% 41   30.28        
Dec 11 11:55 WNW 6 10 Clear CLR 45 28     53% 41   30.29        
Dec 11 11:35 WNW 7 10 Clear CLR 43 28     57% 39   30.3        
Dec 11 11:15 WNW 7 10 Clear CLR 43 30     61% 39   30.31        
Dec 11 10:55 WNW 8 10 Clear CLR 41 28     61% 36   30.31        
Dec 11 10:35 WNW 6 10 Clear CLR 39 30     70% 35   30.31        
Dec 11 10:15 W 6 10 Clear CLR 37 30     75% 33   30.31        
Dec 11 09:55 W 7 10 Clear CLR 37 30     75% 32   30.31        
Dec 11 09:35 WNW 5 10 Clear CLR 36 32     87% 32   30.3        
Dec 11 09:15 WNW 7 10 Clear CLR 36 32     87% 30   30.29        
Dec 11 08:55 WNW 5 10 Clear CLR 34 32     93% 29   30.28        
Dec 11 08:35 WNW 6 10 Clear CLR 34 32     93% 29   30.28        
Dec 11 08:15 WNW 7 7 Clear CLR 34 32     93% 28   30.28        
Dec 11 07:55 W 6 7 Clear CLR 34 32     93% 29   30.27        
Dec 11 07:35 W 3 7 Clear CLR 34 32     93% 31   30.25        
Dec 11 07:15 W 5 5 Fog/Mist CLR 34 32     93% 29   30.25        
Dec 11 06:55 W 7 4 Fog/Mist SCT002 34 32     93% 28   30.25        
Dec 11 06:35 W 6 4 Fog/Mist OVC002 36 34     93% 31   30.25        
Dec 11 06:15 WNW 5 3 Fog/Mist OVC002 36 34     93% 32   30.25        
Dec 10 22:35 Calm 5 Fog/Mist BKN018 BKN035 OVC045 39 37     93%     30.19        
Dec 10 22:15 Calm 10 Cloudy BKN035 OVC120 39 37     93%     30.18        
Dec 10 21:55 Calm 7 Cloudy BKN028 BKN032 OVC040 41 37     87%     30.18        
Dec 10 21:35 Calm 7 Cloudy OVC026 41 37     87%     30.18        
Dec 10 21:15 Calm 5 Fog/Mist BKN024 BKN055 OVC090 41 37     87%     30.18        
Dec 10 20:55 Calm 10 Cloudy SCT022 BKN080 OVC110 41 37     87%     30.18        
Dec 10 20:35 Calm 7 Light Drizzle SCT060 BKN080 OVC110 41 37     87%     30.17        
Dec 10 20:15 Calm 10 Drizzle BKN060 OVC080 41 37     87%     30.16        
Dec 10 19:55 Calm 7 Drizzle OVC070 41 37     87%     30.16        
Dec 10 19:35 Calm 10 Light Rain SCT036 BKN070 OVC080 41 37     87%     30.16        
Dec 10 19:15 Calm 10 Light Drizzle SCT007 BKN035 OVC090 41 37     87%     30.15        
Dec 10 18:55 Calm 10 Light Drizzle SCT005 BKN008 OVC080 41 37     87%     30.15        
Dec 10 18:35 NW 3 10 Drizzle OVC008 41 37     87% 39   30.15        
Dec 10 18:15 Calm 10 Rain OVC008 41 37     87%     30.14        
Dec 10 17:55 Calm 10 Drizzle BKN008 BKN016 OVC039 41 37     87%     30.14        
Dec 10 17:35 Calm 10 Light Rain OVC039 41 37     87%     30.14        
Dec 10 17:15 WNW 3 10 Light Rain OVC037 41 37     87% 39   30.13        
Dec 10 16:55 WNW 3 10 Light Rain SCT005 BKN023 OVC037 41 37     87% 39   30.13        
Dec 10 16:35 NW 3 10 Drizzle BKN005 BKN014 OVC031 41 37     87% 39   30.13        
Dec 10 16:15 NW 5 10 Light Rain BKN005 OVC010 41 37     87% 38   30.12        
Dec 10 15:55 WNW 5 10 Light Rain BKN005 BKN010 OVC036 41 37     87% 38   30.12        
Dec 10 15:35 WNW 3 10 Light Rain SCT007 BKN037 OVC043 41 37     87% 39   30.11        
Dec 10 15:15 NW 3 10 Light Rain SCT005 BKN022 OVC045 41 37     87% 39   30.1        
Dec 10 14:55 NW 5 10 Light Rain BKN005 BKN012 OVC039 41 39     93% 38   30.1        
Dec 10 14:35 Calm 7 Light Rain BKN005 OVC010 41 39     93%     30.09        
Dec 10 14:15 WNW 3 5 Light Rain BKN005 OVC013 41 39     93% 39   30.09        
Dec 10 13:55 WNW 3 4 Light Rain OVC003 41 39     93% 39   30.09        
Dec 10 13:35 NW 7 2 Drizzle OVC003 43 41     93% 39   30.09        
Dec 10 13:15 WNW 3 1.5 Drizzle OVC003 43 41     93% 41   30.09        
Dec 10 12:55 Calm 1.5 Drizzle OVC005 43 41     93%     30.09        
Dec 10 12:35 Calm 1.5 Light Drizzle OVC003 43 41     93%     30.1        
Dec 10 12:15 Calm 3 Fog/Mist SCT003 OVC016 43 39     87%     30.1        
Dec 10 11:55 Calm 2.5 Fog/Mist SCT003 BKN008 OVC016 43 39     87%     30.11        
Dec 10 11:35 Calm 2 Fog/Mist OVC008 43 39     87%     30.12        
Dec 10 11:15 Calm 10 Cloudy OVC006 41 39     93%     30.13        
Dec 10 10:55 Calm 10 Cloudy OVC004 41 41     100%     30.13        
Dec 10 10:35 W 5 10 Cloudy OVC004 41 39     93% 38   30.11        
Dec 10 10:15 W 3 7 Cloudy OVC004 41 39     93% 39   30.12        
Dec 10 09:55 Calm 5 Fog/Mist OVC004 41 37     87%     30.11        
Dec 10 09:35 Calm 5 Light Drizzle BKN004 BKN020 OVC028 41 37     87%     30.1        
Dec 10 09:15 Calm 7 Cloudy BKN004 OVC048 39 37     93%     30.09        
Dec 10 08:55 Calm 5 Fog/Mist SCT004 BKN037 OVC048 39 37     93%     30.07        
Dec 10 08:35 Calm 5 Fog/Mist SCT004 BKN037 OVC055 39 37     93%     30.06        
Dec 10 08:15 Calm 4 Fog/Mist BKN002 BKN015 OVC037 37 37     100%     30.06        
Dec 10 07:55 Calm 5 Fog/Mist BKN002 OVC048 37 37     100%     30.06        
Dec 10 07:35 Calm 5 Fog/Mist SCT002 OVC048 37 37     100%     30.05        
Dec 10 07:15 Calm 4 Fog/Mist SCT004 BKN050 OVC075 39 37     93%     30.04        
Dec 10 06:55 Calm 5 Fog/Mist BKN004 OVC075 37 37     100%     30.03        
Dec 10 06:35 Calm 5 Fog/Mist OVC004 37 37     100%     30.03        
Dec 10 06:15 Calm 4 Fog/Mist OVC004 37 37     100%     30.02        
Dec 10 05:55 Calm 5 Fog/Mist OVC004 39 37     93%     30.02        
Dec 10 05:35 Calm 5 Fog/Mist OVC004 39 37     93%     30.02        
Dec 10 05:15 WNW 3 5 Fog/Mist OVC004 37 37     100% 35   30.01        
Dec 10 04:55 WNW 3 5 Light Rain OVC004 39 37     93% 37   30.01        
Dec 10 04:35 Calm 5 Drizzle OVC004 39 37     93%     30.01        
Dec 10 04:15 Calm 7 Light Rain BKN004 BKN010 OVC029 37 37     100%     30.01        
Dec 10 03:55 Calm 7 Light Rain SCT008 BKN036 OVC045 37 37     100%     30.02        
Dec 10 03:35 Calm 5 Light Drizzle SCT022 BKN038 OVC047 37 37     100%     30.02        
Dec 10 03:15 Calm 5 Light Drizzle BKN007 SCT018 OVC036 37 37     100%     30.02        
Dec 10 02:55 Calm 7 Light Drizzle OVC005 37 37     100%     30.01        
Dec 10 02:35 Calm 7 Light Drizzle OVC005 37 37     100%     30.01        
Dec 10 02:15 Calm 5 Rain OVC005 37 37     100%     30.01        
Dec 10 01:55 Calm 5 Light Rain OVC005 37 37     100%     30.01        
Dec 10 01:35 Calm 4 Light Rain OVC005 37 37     100%     30.01        
Dec 10 01:15 WNW 3 5 Drizzle OVC005 37 37     100% 35   30.01        
Dec 10 00:55 WNW 3 7 Cloudy OVC005 37 37     100% 35   30.01        
Dec 10 00:35 WNW 3 5 Fog/Mist BKN005 BKN009 OVC034 39 37     93% 37   30.01        
Dec 10 00:15 WNW 5 7 Cloudy BKN003 OVC034 39 37     93% 36   30.01        
Dec 09 23:55 Calm 5 Fog/Mist OVC003 39 37     93%     30.01        
Dec 09 23:35 Calm 7 Cloudy OVC005 39 37     93%     30.01        
Dec 09 23:10 Calm 3 Fog/Mist BKN003 OVC009 41 37     87%     30.01        
Dec 09 22:55 Calm 0.5 Fog OVC003 41 37     87%     30.01        
Dec 09 22:35 Calm 7 Cloudy SCT005 BKN013 OVC030 41 37     87%     30.01        
Dec 09 22:15 Calm 5 Light Drizzle SCT007 OVC011 41 37     87%     30.01        
Dec 09 21:55 Calm 4 Drizzle SCT007 OVC011 41 37     87%     30.01        
Dec 09 21:35 Calm 5 Light Rain BKN011 OVC017 41 37     87%     30.01        
Dec 09 21:15 Calm 7 Light Rain BKN013 OVC018 41 37     87%     30.01        
Dec 09 20:55 Calm 10 Light Drizzle OVC015 41 37     87%     30.01        
Dec 09 20:35 Calm 7 Light Drizzle OVC013 41 37     87%     30.01        
Dec 09 20:15 Calm 5 Light Rain OVC013 41 37     87%     30.01        
Dec 09 19:55 Calm 5 Drizzle BKN015 OVC020 41 37     87%     30.01        
Dec 09 19:35 Calm 4 Light Rain SCT011 BKN016 OVC020 41 37     87%     30.01        
Dec 09 19:15 Calm 3 Rain BKN009 OVC017 41 37     87%     30.01        
Dec 09 18:55 Calm 2.5 Light Drizzle OVC014 41 37     87%     30        
Dec 09 18:35 Calm 2.5 Fog/Mist OVC014 41 36     81%     30        
Dec 09 18:15 Calm 7 Cloudy OVC014 41 36     81%     29.99        
Dec 09 17:55 Calm 10 Cloudy BKN016 OVC025 41 36     81%     29.99        
Dec 09 17:35 Calm 10 Cloudy SCT019 OVC027 41 36     81%     29.98        
Dec 09 17:15 Calm 10 Cloudy SCT019 BKN029 OVC035 41 36     81%     29.97        
Dec 09 16:55 Calm 10 Cloudy BKN017 OVC035 41 36     81%     29.97        
Dec 09 16:35 ENE 6 10 Cloudy OVC015 41 36     81% 37   29.97        
Dec 09 16:15 NE 5 10 Cloudy OVC013 41 36     81% 38   29.97        
Dec 09 15:55 ENE 3 10 Cloudy OVC013 41 36     81% 39   29.97        
Dec 09 15:35 ENE 5 10 Cloudy OVC013 41 36     81% 38   29.97        
Dec 09 15:15 Calm 10 Cloudy OVC013 41 34     75%     29.97        
Dec 09 14:55 E 6 10 Cloudy OVC013 41 36     81% 37   29.96        
Dec 09 14:35 ENE 9 7 Cloudy OVC011 41 36     81% 35   29.96        
Dec 09 14:15 ENE 5 10 Cloudy OVC011 41 36     81% 38   29.95        
Dec 09 13:55 ENE 5 10 Cloudy OVC011 41 36     81% 38   29.96        
Dec 09 13:35 E 10 10 Cloudy OVC011 41 36     81% 35   29.97        
Dec 09 13:15 ENE 6 10 Cloudy OVC011 41 36     81% 37   29.97        
Dec 09 12:55 ENE 8 10 Cloudy OVC009 41 36     81% 36   29.98        
Notice The following observation data may not be complete
Dec 09 12:35 ENE 9 10 Cloudy OVC009          %     29.98        
Notice The following observation data may not be complete
Dec 09 12:15 E 9 10 Cloudy OVC011          %     29.99        
Notice The following observation data may not be complete
Dec 09 11:55 ENE 9 10 Cloudy OVC011          %     30        
Notice The following observation data may not be complete
Dec 09 11:35 ENE 10 10 Cloudy OVC009          %     30.01        
Notice The following observation data may not be complete
Dec 09 11:15 E 6 7 Cloudy OVC007          %     30.01        
Notice The following observation data may not be complete
Dec 09 10:55 ENE 11 4 Haze OVC007          %     30.01        
Notice The following observation data may not be complete
Dec 09 10:35 E 7 3 Fog/Mist OVC007          %     30.02        
Notice The following observation data may not be complete
Dec 09 10:15 E 9 4 Haze OVC007          %     30.02        
Notice The following observation data may not be complete
Dec 09 09:55 ENE 11 4 Light Rain OVC007          %     30.02        
Notice The following observation data may not be complete
Dec 09 09:35 ENE 8 2.5 Light Rain OVC009          %     30.02        
Notice The following observation data may not be complete
Dec 09 09:15 ENE 13 3 Light Drizzle OVC009          %     30.01        
Notice The following observation data may not be complete
Dec 09 08:55 ENE 11 10 Cloudy OVC009          %     30.01        
Notice The following observation data may not be complete
Dec 09 08:35 ENE 8 10 Cloudy OVC007          %     30.02        
Notice The following observation data may not be complete
Dec 09 08:15 ENE 8 10 Light Drizzle OVC007          %     30.01        
Notice The following observation data may not be complete
Dec 09 07:55 ENE 10 7 Rain OVC007          %     30.02        
Notice The following observation data may not be complete
Dec 09 07:35 E 8 4 Rain OVC009          %     30.02        
Notice The following observation data may not be complete
Dec 09 07:15 E 13 5 Drizzle OVC009          %     30.02        
Notice The following observation data may not be complete
Dec 09 06:55 ENE 11 5 Light Rain OVC009          %     30.01        
Notice The following observation data may not be complete
Dec 09 06:35 E 11 5 Drizzle OVC009          %     30.01        
Notice The following observation data may not be complete
Dec 09 06:15 ENE 11 7 Cloudy OVC009          %     30.01        
Notice The following observation data may not be complete
Dec 09 05:55 ENE 13 7 Light Rain OVC009          %     30.01        
Notice The following observation data may not be complete
Dec 09 05:35 E 10 7 Light Drizzle OVC009          %     30.01        
Notice The following observation data may not be complete
Dec 09 05:15 E 14 4 Drizzle OVC009          %     30.01        
Notice The following observation data may not be complete
Dec 09 04:55 E 11 5 Light Rain OVC009          %     30.01        
Notice The following observation data may not be complete
Dec 09 04:35 ENE 14 3 Rain OVC009          %     30.01        
Notice The following observation data may not be complete
Dec 09 04:15 ENE 14 5 Rain OVC009          %     30.02        
Notice The following observation data may not be complete
Dec 09 03:55 ENE 13 2.5 Rain OVC009          %     30.03        
Notice The following observation data may not be complete
Dec 09 03:35 ENE 13 4 Light Rain BKN009 OVC012          %     30.06        
Notice The following observation data may not be complete
Dec 09 03:15 E 11 3 Light Rain BKN009 OVC012          %     30.06        
Notice The following observation data may not be complete
Dec 09 02:55 ENE 13 2 Light Rain OVC009          %     30.06        
Notice The following observation data may not be complete
Dec 09 02:35 E 14 7 Light Rain OVC009          %     30.08        
Notice The following observation data may not be complete
Dec 09 02:15 ENE 10 5 Light Rain BKN009 OVC012          %     30.08        
Notice The following observation data may not be complete
Dec 09 01:55 ENE 13 4 Light Rain OVC009          %     30.12        
Notice The following observation data may not be complete
Dec 09 01:35 ENE 10 3 Rain OVC009          %     30.12        
Notice The following observation data may not be complete
Dec 09 01:15 ENE 10 1.75 Light Snow OVC009          %     30.15        
Notice The following observation data may not be complete
Dec 09 00:55 ENE 14 1.25 Light Snow OVC007          %     30.15        
Notice The following observation data may not be complete
Dec 09 00:35 NE 9 2 Light Rain OVC009          %     30.15        
Notice The following observation data may not be complete
Dec 09 00:15 ENE 13 1.75 Unknown Precipitation OVC009          %     30.13        
Notice The following observation data may not be complete
Dec 08 23:55 ENE 21 5 Light Rain OVC009          %     30.12        
Notice The following observation data may not be complete
Dec 08 23:35 ENE 20 1.75 Unknown Precipitation OVC009          %     30.11        
Notice The following observation data may not be complete
Dec 08 23:15   2 Rain OVC009          %     30.16        
Notice The following observation data may not be complete
Dec 08 22:55 ENE 17 2.5 Rain OVC009          %     30.18        
Notice The following observation data may not be complete
Dec 08 22:35 ENE 13 2 Unknown Precipitation OVC009          %     30.22        
Notice The following observation data may not be complete
Dec 08 22:15 ENE 16 2.5 Light Rain BKN007 OVC013          %     30.22        
Notice The following observation data may not be complete
Dec 08 21:55 ENE 17 2.5 Rain OVC007          %     30.2        
Notice The following observation data may not be complete
Dec 08 21:35 ENE 14 1.75 Light Rain OVC007          %     30.21        
Notice The following observation data may not be complete
Dec 08 21:15 ENE 16 3 Rain OVC007          %     30.2        
Notice The following observation data may not be complete
Dec 08 20:55 ENE 18 7 Light Rain OVC007          %     30.18        
Notice The following observation data may not be complete
Dec 08 20:35 E 14 4 Rain OVC007          %     30.18        
Notice The following observation data may not be complete
Dec 08 20:15 ENE 15 3 Unknown Precipitation OVC007          %     30.2        
Notice The following observation data may not be complete
Dec 08 19:55 ENE 16 2.5 Light Rain OVC007          %     30.21        
Notice The following observation data may not be complete
Dec 08 19:35 ENE 11 2.5 Light Rain OVC007          %     30.24        
Notice The following observation data may not be complete
Dec 08 19:15 ENE 14 2.5 Unknown Precipitation OVC007          %     30.25        
Dec 08 18:55 ENE 11 3 Rain OVC007 39 36     87% 32   30.25        
Dec 08 18:35 ENE 13 4 Rain OVC007 39 36     87% 32   30.26        
Dec 08 18:15 ENE 11 4 Rain OVC007 39 36     87% 32   30.25        
Dec 08 17:55 ENE 6 4 Rain OVC007 39 36     87% 35   30.25        
Dec 08 17:35 ENE 14 5 Rain OVC007 39 37     93% 31   30.25        
Dec 08 17:15 ENE 15 7 Rain OVC007 41 37     87% 33   30.25        
Dec 08 16:55 ENE 10 7 Light Rain OVC007 41 37     87% 35   30.26        
Dec 08 16:35 ENE 11 7 Light Rain OVC005 41 37     87% 34   30.27        
Dec 08 16:15 ENE 8 4 Rain OVC005 41 37     87% 36   30.28        
Dec 08 15:55 ENE 8 3 Rain OVC005 41 37     87% 36   30.29        
Dec 08 15:35 ENE 7 5 Light Rain OVC007 41 37     87% 36   30.3        
Dec 08 15:15 ENE 8 4 Rain OVC007 41 37     87% 36   30.3        
Dec 08 14:55 E 8 5 Rain OVC007 41 37     87% 36   30.32        
Dec 08 14:35 Calm 5 Rain OVC007 41 37     87%     30.31        
Dec 08 14:15 ENE 9 5 Rain OVC005 41 37     87% 35   30.32        
Dec 08 13:55 ENE 9 5 Rain OVC007 41 37     87% 35   30.32        
Dec 08 13:35 ENE 8 5 Light Rain OVC007 41 37     87% 36   30.33        
Dec 08 13:15 ENE 9 7 Light Rain OVC005 41 37     87% 35   30.33        
Dec 08 12:55 ENE 8 7 Light Rain OVC005 41 37     87% 36   30.34        
Dec 08 12:35 ENE 8 5 Clear   41 37     87% 36   30.35        
Dec 08 12:15 ENE 8 4 Clear   41 37     87% 36   30.36        
Dec 08 11:55 ENE 6 7 Clear   41 37     87% 37   30.4        
Dec 08 11:35 E 7 5 Light Rain OVC005 41 37     87% 36   30.4        
Dec 08 11:15 E 5 4 Rain OVC005 41 37     87% 38   30.42        
Dec 08 10:55 E 5 4 Rain BKN005 OVC011 41 37     87% 38   30.43        
Dec 08 10:35 E 10 4 Rain OVC005 41 39     93% 35   30.43        
Dec 08 10:15 E 5 4 Light Rain OVC005 41 39     93% 38   30.43        
Dec 08 09:55 E 3 4 Rain OVC005 41 39     93% 39   30.42        
Dec 08 09:35 ENE 7 3 Rain OVC005 41 39     93% 36   30.41        
Dec 08 09:15 ENE 5 2.5 Rain OVC005 41 39     93% 38   30.41        
Dec 08 08:55 ENE 6 2.5 Rain OVC003 41 39     93% 37   30.41        
Dec 08 08:35 ENE 3 4 Rain OVC005 41 39     93% 39   30.4        
Dec 08 08:15 E 6 5 Light Rain OVC005 41 39     93% 37   30.4        
Dec 08 07:55 Calm 5 Light Rain OVC005 41 39     93%     30.39        
Dec 08 07:35 ENE 7 5 Light Rain OVC003 41 39     93% 36   30.38        
Dec 08 07:15 ENE 3 4 Light Rain OVC003 41 39     93% 39   30.38        
Dec 08 06:55 Calm 4 Drizzle OVC003 41 39     93%     30.37        
Dec 08 06:35 Calm 5 Light Rain BKN005 OVC023 41 39     93%     30.37        
Dec 08 06:15 ENE 3 5 Drizzle SCT005 SCT017 OVC023 41 39     93% 39   30.36        
Dec 08 05:55 ENE 5 5 Rain SCT005 BKN017 OVC023 41 39     93% 38   30.36        
Dec 08 05:35 ENE 5 5 Rain OVC017 41 39     93% 38   30.37        
Dec 08 05:15 ENE 3 5 Light Rain OVC017 41 39     93% 39   30.37        
Dec 08 04:55 Calm 5 Drizzle OVC019 43 41     93%     30.37        
Dec 08 04:35 ENE 5 7 Drizzle OVC019 43 41     93% 40   30.37        
Dec 08 04:15 ENE 3 5 Drizzle OVC019 43 41     93% 41   30.37        
Dec 08 03:55 Calm 5 Drizzle OVC019 43 41     93%     30.37        
Dec 08 03:35 Calm 4 Drizzle OVC019 43 41     93%     30.37        
Dec 08 03:15 Calm 4 Drizzle SCT021 OVC036 43 41     93%     30.37        
Dec 08 02:55 Calm 4 Rain SCT021 OVC036 43 41     93%     30.37        
Dec 08 02:35 Calm 4 Light Rain SCT021 OVC034 43 43     100%     30.38        
Dec 08 02:15 Calm 3 Light Rain SCT012 OVC034 43 43     100%     30.37        
Dec 08 01:55 Calm 3 Light Drizzle OVC012 43 43     100%     30.36        
Dec 08 01:35 Calm 4 Fog/Mist SCT002 OVC010 43 43     100%     30.37        
Dec 08 01:15 Calm 2.5 Fog/Mist BKN002 OVC010 43 43     100%     30.36        
Dec 08 00:55 Calm 0.5 Fog OVC005 43 41     93%     30.37        
Dec 08 00:35 Calm 1 Fog/Mist OVC005 43 41     93%     30.37        
Dec 08 00:15 Calm 1.75 Fog/Mist BKN003 OVC009 43 41     93%     30.39        
Dec 07 23:55 Calm 1.5 Fog/Mist SCT003 OVC011 43 41     93%     30.39        
Dec 07 23:35 Calm 2 Fog/Mist BKN003 OVC011 43 41     93%     30.4        
Dec 07 23:15 Calm 2.5 Fog/Mist SCT003 BKN027 OVC034 43 41     93%     30.4        
Dec 07 22:55 Calm 2 Fog/Mist BKN003 OVC025 43 41     93%     30.4        
Dec 07 22:35 Calm 2 Fog/Mist BKN007 BKN012 OVC024 43 41     93%     30.39        
Dec 07 22:15 Calm 3 Fog/Mist SCT001 BKN024 OVC035 43 41     93%     30.38        
Dec 07 21:55 Calm 2.5 Fog/Mist BKN001 BKN008 OVC035 43 41     93%     30.38        
Dec 07 21:35 Calm 2.5 Fog/Mist BKN001 BKN016 OVC040 43 41     93%     30.38        
Dec 07 21:15 Calm 2.5 Fog/Mist SCT003 SCT016 OVC042 43 41     93%     30.37        
Dec 07 20:55 Calm 3 Fog/Mist SCT003 BKN037 OVC043 43 41     93%     30.38        
Dec 07 20:35 Calm 4 Fog/Mist SCT003 BKN011 OVC044 43 41     93%     30.37        
Dec 07 20:15 Calm 4 Fog/Mist SCT003 BKN011 OVC031 43 41     93%     30.38        
Dec 07 19:35 Calm 7 Cloudy SCT012 SCT026 OVC035 43 41     93%     30.39        
Dec 07 19:15 Calm 5 Fog/Mist OVC037 43 41     93%     30.39        
Dec 07 18:55 Calm 5 Fog/Mist OVC039 43 41     93%     30.4        
Dec 07 18:35 Calm 4 Fog/Mist OVC039 43 41     93%     30.39        
Dec 07 18:15 Calm 5 Fog/Mist OVC039 43 41     93%     30.37        
Dec 07 17:55 Calm 10 Cloudy SCT005 SCT008 OVC041 43 41     93%     30.37        
Dec 07 17:35 Calm 7 Cloudy SCT008 OVC041 43 41     93%     30.37        
Dec 07 17:15 Calm 7 Cloudy BKN005 OVC041 43 41     93%     30.37        
Dec 07 16:55 Calm 5 Fog/Mist OVC005 43 41     93%     30.37        
Dec 07 16:35 Calm 5 Light Drizzle OVC005 43 41     93%     30.36        
Dec 07 16:15 Calm 5 Light Drizzle OVC005 43 41     93%     30.36        
Dec 07 15:55 Calm 4 Light Drizzle OVC005 43 41     93%     30.37        
Dec 07 15:35 Calm 4 Drizzle OVC005 43 39     87%     30.36        
Dec 07 15:15 Calm 5 Drizzle BKN005 BKN023 OVC060 43 39     87%     30.36        
Dec 07 14:55 Calm 5 Drizzle OVC005 43 39     87%     30.36        
Dec 07 14:35 S 3 7 Light Drizzle SCT005 BKN046 OVC050 43 37     81% 41   30.36        
Dec 07 14:15 Calm 10 Light Rain SCT007 SCT024 OVC050 43 37     81%     30.38        
Dec 07 13:55 Calm 10 Light Rain SCT007 SCT024 OVC044 43 37     81%     30.39        
Dec 07 13:35 Calm 7 Light Rain BKN033 BKN044 OVC060 43 37     81%     30.4        
Dec 07 13:15 Calm 7 Rain SCT046 BKN060 OVC075 43 36     76%     30.41        
Dec 07 12:55 Calm 10 Light Drizzle SCT048 OVC060 43 36     76%     30.41        
Dec 07 12:35 Calm 10 Light Rain BKN050 OVC055 43 36     76%     30.41        
Dec 07 12:15 Calm 10 Light Rain SCT037 OVC050 43 34     70%     30.43        
Dec 07 11:55 Calm 10 Rain BKN050 OVC070 43 34     70%     30.44        
Dec 07 11:35 Calm 10 Light Rain SCT036 SCT043 OVC050 43 32     65%     30.45        
Dec 07 11:15 Calm 10 Light Rain BKN036 OVC050 43 32     65%     30.45        
Dec 07 10:55 Calm 10 Cloudy SCT036 BKN050 OVC090 41 32     70%     30.45        
Dec 07 10:35 Calm 10 Light Rain SCT050 SCT075 OVC090 41 32     70%     30.44        
Dec 07 10:15 W 3 10 Light Rain SCT050 BKN080 OVC090 41 32     70% 39   30.45        
Dec 07 09:55 W 5 10 Light Drizzle BKN050 OVC080 41 30     65% 38   30.44        
Dec 07 09:35 WNW 5 10 Drizzle BKN048 BKN050 OVC080 41 30     65% 38   30.43        
Dec 07 09:15 WNW 6 10 Light Drizzle OVC080 41 28     61% 37   30.43        
Dec 07 08:55 WNW 3 10 Drizzle SCT050 BKN070 OVC095 41 28     61% 39   30.42        
Dec 07 08:35 WNW 6 10 Cloudy OVC070 41 28     61% 37   30.42        
Dec 07 08:15 Calm 10 Light Drizzle SCT055 OVC070 41 27     56%     30.41        
Dec 07 07:55 WNW 5 10 Drizzle OVC055 37 30     75% 34   30.41        
Dec 07 07:35 Calm 10 Light Rain BKN055 BKN065 OVC120 37 30     75%     30.4        
Dec 07 07:15 Calm 10 Cloudy SCT060 SCT065 OVC120 39 28     65%     30.39        
Dec 07 06:55 Calm 10 Light Drizzle BKN045 BKN060 OVC120 41 23     48%     30.37        
Dec 07 06:35 W 3 10 Cloudy BKN043 OVC050 41 23     48% 39   30.39        
Dec 07 06:15 WNW 3 10 Cloudy OVC041 39 23     52% 37   30.37        
Dec 07 05:55 WNW 5 10 Cloudy BKN043 OVC050 37 27     65% 34   30.37        
Dec 07 05:35 W 3 10 Cloudy SCT047 OVC050 37 27     65% 35   30.37        
Dec 07 05:15 Calm 10 Cloudy BKN047 OVC050 37 23     56%     30.36        
Dec 07 04:55 W 5 10 Cloudy OVC050 36 27     69% 32   30.35        
Dec 07 04:35 Calm 10 Mostly Cloudy BKN050 BKN075 34 27     75%     30.35        
Dec 07 04:15 Calm 10 Partly Cloudy SCT055 SCT075 37 23     56%     30.34        
Dec 07 03:35 Calm 10 Cloudy OVC055 37 21     52%     30.35        
Dec 07 03:15 Calm 10 Mostly Cloudy SCT055 BKN070 39 21     48%     30.36        
Dec 07 02:55 W 5 10 Partly Cloudy SCT070 39 21     48% 36   30.36        
Dec 07 02:35 W 3 10 Partly Cloudy SCT040 SCT060 39 19     45% 37   30.36        
Dec 07 02:15 W 3 10 Partly Cloudy SCT040 37 23     56% 35   30.36        
Dec 07 01:55 Calm 10 Partly Cloudy SCT041 37 25     60%     30.34        
Dec 07 01:35 Calm 10 Partly Cloudy SCT041 37 25     60%     30.34        
Dec 07 01:15 Calm 10 Clear CLR 37 27     65%     30.34        
Dec 07 00:55 Calm 10 Partly Cloudy SCT090 41 19     42%     30.35        
Dec 07 00:35 Calm 10 Cloudy OVC090 41        %     30.36        
Dec 07 00:15 Calm 10 Cloudy SCT048 OVC090 41        %     30.36        
Dec 06 23:55 Calm 10 Cloudy OVC090 43        %     30.37        
Dec 06 23:35 NW 5 10 Cloudy OVC090 41 21     45% 38   30.37        
Dec 06 23:15 WNW 3 10 Cloudy SCT075 OVC090 41 23     48% 39   30.36        
Dec 06 22:55 Calm 10 Cloudy BKN085 OVC090 43 21     42%     30.36        
Dec 06 22:35 Calm 10 Cloudy SCT050 OVC080 43 23     45%     30.36        
Dec 06 22:15 W 3 10 Cloudy BKN050 OVC080 41 23     48% 39   30.36        
Dec 06 21:55 Calm 10 Cloudy OVC050 41 25     52%     30.36        
Dec 06 21:35 Calm 10 Cloudy OVC055 41 23     48%     30.36        
Dec 06 21:15 Calm 10 Cloudy OVC055 41 23     48%     30.36        
Dec 06 20:55 Calm 10 Cloudy OVC070 41 23     48%     30.36        
Dec 06 20:35 Calm 10 Cloudy OVC070 39 23     52%     30.36        
Dec 06 20:15 Calm 10 Cloudy OVC070 39 23     52%     30.35        
Dec 06 19:55 Calm 10 Cloudy OVC070 41 23     48%     30.35        
Dec 06 19:35 Calm 10 Cloudy OVC070 41 23     48%     30.35        
Dec 06 19:15 NW 3 10 Mostly Cloudy BKN070 41 21     45% 39   30.34        
Dec 06 18:55 Calm 10 Clear CLR 41 21     45%     30.34        
Dec 06 18:35 WNW 5 10 Clear CLR 43 21     42% 40   30.34        
Dec 06 18:15 W 5 10 Clear CLR 43 19     39% 40   30.33        
Dec 06 17:55 WNW 5 10 Clear CLR 45 16     31% 42   30.33        
Dec 06 17:35 Calm 10 Clear CLR 45 16     31%     30.34        
Dec 06 17:15 Calm 10 Clear CLR 46 14     27%     30.33        
Dec 06 16:55 Calm 10 Clear CLR 46 14     27%     30.33        
Dec 06 16:35 Calm 10 Clear CLR 46 14     27%     30.32        
Dec 06 16:15 S 5 10 Clear CLR 46 12     25% 44   30.3        
Dec 06 15:55 Calm 10 Clear CLR 48        %     30.31        
Dec 06 15:35 Calm 10 Clear CLR 46        %     30.32        
Dec 06 15:15 SW 3 10 Clear CLR 46 10     23% 45   30.33        
Dec 06 14:55 Calm 10 Clear CLR 46        %     30.33        
Dec 06 14:35 Calm 10 Clear CLR 46        %     30.34        
Dec 06 14:15 Calm 10 Clear CLR 46 10     23%     30.33        
Dec 06 13:55 Calm 10 Clear CLR 46        %     30.34        
Dec 06 13:35 Calm 10 Clear CLR 46        %     30.35        
Dec 06 13:15 Calm 10 Clear CLR 48        %     30.35        
Dec 06 12:55 Calm 10 Clear CLR 46 12     25%     30.36        
Dec 06 12:35 Calm 10 Clear CLR 46        %     30.37        
Dec 06 12:15 SW 5 10 Clear CLR 46        % 44   30.36        
Dec 06 11:55 Calm 10 Clear CLR 45 14     29%     30.37        
Dec 06 11:35 ENE 3 10 Clear CLR 43 14     31% 41   30.38        
Dec 06 11:15 Calm 10 Clear CLR 43 16     33%     30.39        
Dec 06 10:55 ESE 3 10 Clear CLR 41 18     38% 39   30.4        
Dec 06 10:35 E 6 10 Clear CLR 39 18     41% 35   30.4        
Dec 06 10:15 ENE 3 10 Clear CLR 36 19     51% 33   30.41        
Dec 06 09:55 Calm 10 Clear CLR 36 18     48%     30.4        
Dec 06 09:35 Calm 10 Clear CLR 34 19     55%     30.4        
Dec 06 09:15 Calm 10 Clear CLR 34 19     55%     30.39        
Dec 06 08:55 Calm 10 Clear CLR 32 19     59%     30.39        
Dec 06 08:35 Calm 10 Clear CLR 32 21     64%     30.37        
Dec 06 08:15 ESE 3 10 Clear CLR 30 19     64% 27   30.36        
Dec 06 07:55 Calm 10 Clear CLR 30 19     64%     30.37        
Dec 06 07:35 Calm 10 Clear CLR 30 19     64%     30.37        
Dec 06 07:15 Calm 10 Clear CLR 30 19     64%     30.36        
Notice The following observation data may not be complete
Dec 06 06:55 Calm 10 Clear CLR   18      %     30.36        
Notice The following observation data may not be complete
Dec 06 06:35 Calm 10 Clear CLR   18      %     30.35        
Notice The following observation data may not be complete
Dec 06 06:15 Calm 10 Clear CLR   18      %     30.35        
Notice The following observation data may not be complete
Dec 06 05:55 NNW 3 10 Clear CLR   18      %     30.35        
Notice The following observation data may not be complete
Dec 06 05:35 NW 3 10 Clear CLR   18      %     30.34        
Notice The following observation data may not be complete
Dec 06 05:15 NW 5 10 Clear CLR   18      %     30.34        
Dec 06 04:55 Calm 10 Clear CLR 30 18     59%     30.33        
Dec 06 04:35 Calm 10 Clear CLR 30 18     59%     30.34        
Dec 06 04:15 NW 3 10 Clear CLR 30 18     59% 27   30.33        
Notice The following observation data may not be complete
Dec 06 03:55 Calm 10 Clear CLR   18      %     30.34        
Notice The following observation data may not be complete
Dec 06 03:35 Calm 10 Clear CLR   18      %     30.34        
Notice The following observation data may not be complete
Dec 06 03:15 Calm 10 Clear CLR   18      %     30.34        
Dec 06 02:55 Calm 10 Clear CLR 30 18     59%     30.33        
Notice The following observation data may not be complete
Dec 06 02:35 Calm 10 Clear CLR   18      %     30.33        
Notice The following observation data may not be complete
Dec 06 02:15 Calm 10 Clear CLR   18      %     30.34        
Notice The following observation data may not be complete
Dec 06 01:55 NW 3 10 Clear CLR   18      %     30.34        
Dec 06 01:35 NW 3 10 Clear CLR 30 18     59% 27   30.34        
Dec 06 01:15 Calm 10 Clear CLR 30 19     64%     30.34        
Dec 06 00:55 WNW 3 10 Clear CLR 32 19     59% 29   30.35        
Dec 06 00:35 NW 8 10 Clear CLR 32 19     59% 25   30.35        
Dec 06 00:15 NW 6 10 Clear CLR 30 19     64% 24   30.34        
Dec 05 23:55 Calm 10 Clear CLR 32 19     59%     30.34        
Dec 05 23:35 Calm 10 Clear CLR 32 19     59%     30.35        
Dec 05 23:15 NW 3 10 Clear CLR 30 19     64% 27   30.35        
Dec 05 22:55 WNW 6 10 Clear CLR 32 19     59% 26   30.35        
Dec 05 22:35 WNW 3 10 Clear CLR 32 19     59% 29   30.36        
Dec 05 22:15 Calm 10 Clear CLR 32 19     59%     30.35        
Dec 05 21:55 Calm 10 Clear CLR 32 19     59%     30.34        
Dec 05 21:35 Calm 10 Clear CLR 32 19     59%     30.34        
Dec 05 21:15 Calm 10 Clear CLR 32 19     59%     30.34        
Dec 05 20:55 WNW 5 10 Clear CLR 32 19     59% 27   30.34        
Dec 05 20:35 WNW 3 10 Clear CLR 32 19     59% 29   30.33        
Dec 05 20:15 NW 5 10 Partly Cloudy SCT032 32 19     59% 27   30.34        
Dec 05 19:55 NW 6 10 Mostly Cloudy BKN032 34 18     51% 29   30.33        
Dec 05 19:35 NW 6 10 Cloudy OVC032 34 18     51% 29   30.33        
Dec 05 19:15 NW 11 10 Cloudy OVC032 36 19     51% 28   30.33        
Dec 05 18:55 NW 8 10 Cloudy OVC034 36 19     51% 29   30.33        
Dec 05 18:35 NW 8 10 Cloudy OVC034 36 19     51% 29   30.32        
Dec 05 18:15 WNW 9 10 Cloudy OVC034 36 19     51% 29   30.31        
Dec 05 17:55 NW 10 10 Cloudy OVC036 36 19     51% 28   30.3        
Dec 05 17:35 NW 6 10 Cloudy OVC036 36 19     51% 31   30.3        
Dec 05 17:15 NW 8 10 Cloudy OVC036 36 18     48% 29   30.3        
Dec 05 16:55 NW 7 10 Cloudy OVC038 36 18     48% 30   30.28        
Dec 05 16:35 WNW 11 10 Cloudy OVC038 37 18     44% 30   30.28        
Dec 05 16:15 NW 13 10 Cloudy OVC038 37 18     44% 29   30.27        
Dec 05 15:55 WNW 11 10 Cloudy OVC038 37 18     44% 30   30.26        
Dec 05 15:35 WNW 11 10 Cloudy OVC038 37 18     44% 30   30.25        
Dec 05 15:15 WNW 13 10 Mostly Cloudy BKN038 37 18     44% 29   30.24        
Dec 05 14:55   10 Partly Cloudy SCT040 41 18     38%     30.24        
Dec 05 14:35   10 Partly Cloudy SCT038 37 19     48%     30.23        
Dec 05 14:15 NW 14 10 Mostly Cloudy BKN038 37 18     44% 29   30.23        
Dec 05 13:55 NW 15 10 Cloudy OVC038 37 19     48% 29   30.23        
Dec 05 13:35 NW 9 10 Mostly Cloudy BKN038 37 19     48% 31   30.23        
Dec 05 13:15 WNW 10 10 Mostly Cloudy BKN036 37 19     48% 30   30.23        
Dec 05 12:55 WNW 10 10 Cloudy OVC034 41 21     45% 35   30.23        
Dec 05 12:35 NW 14 10 Mostly Cloudy BKN034 BKN043 41 19     42% 33   30.23        
Dec 05 12:15 WNW 10 10 Partly Cloudy SCT032 39 21     48% 33   30.23        
Dec 05 11:55 NW 11 10 Clear CLR 37 21     52% 30   30.23        
Dec 05 11:35 W 11 10 Partly Cloudy SCT027 37 21     52% 30   30.24        
Dec 05 11:15 WNW 11 10 Mostly Cloudy BKN027 37 21     52% 30   30.25        
Dec 05 10:55 NW 9 10 Cloudy OVC027 37 21     52% 31   30.25        
Dec 05 10:35 WNW 13 10 Mostly Cloudy BKN027 37 21     52% 29   30.25        
Dec 05 10:15 NW 10 10 Clear CLR 36 21     55% 28   30.25        
Dec 05 09:55 NW 9 10 Clear CLR 36 21     55% 29   30.23        
Dec 05 09:35 WNW 9 10 Clear CLR 36 23     60% 29   30.23        
Dec 05 09:15 NW 10 10 Clear CLR 34 23     64% 26   30.23        
Dec 05 08:55 WNW 7 10 Clear CLR 32 25     74% 26   30.22        
Dec 05 08:35 WNW 7 10 Clear CLR 32 25     74% 26   30.21        
Dec 05 08:15 WNW 7 10 Clear CLR 32 25     74% 26   30.21        
Dec 05 07:55 WNW 7 10 Clear CLR 32 23     69% 26   30.2        
Dec 05 07:35 WNW 7 10 Clear CLR 32 23     69% 26   30.2        
Dec 05 07:15 WNW 6 10 Clear CLR 32 23     69% 26   30.2        
Dec 05 06:55 WNW 6 10 Clear CLR 32 23     69% 26   30.2        
Dec 05 06:35 NW 6 10 Clear CLR 32 23     69% 26   30.19        
Dec 05 06:15 NW 5 10 Clear CLR 32 23     69% 27   30.19        
Dec 05 05:55 NW 3 10 Clear CLR 32 23     69% 29   30.18        
Dec 05 05:35 NW 5 10 Clear CLR 32 23     69% 27   30.17        
Dec 05 05:15 WNW 5 10 Clear CLR 32 23     69% 27   30.16        
Dec 05 04:55 WNW 3 10 Clear CLR 32 21     64% 29   30.16        
Dec 05 04:35 W 3 10 Mostly Cloudy BKN038 32 21     64% 29   30.15        
Dec 05 04:15 W 3 10 Cloudy OVC040 32 21     64% 29   30.16        
Dec 05 03:55 W 5 10 Cloudy OVC042 32 21     64% 27   30.16        
Dec 05 03:35 W 5 10 Cloudy OVC042 32 21     64% 27   30.16        
Dec 05 03:15 WNW 6 10 Cloudy OVC042 32 21     64% 26   30.15        
Dec 05 02:55 WNW 5 10 Partly Cloudy SCT042 32 21     64% 27   30.15        
Dec 05 02:35 W 6 10 Clear CLR 32 21     64% 26   30.15        
Dec 05 02:15 W 5 10 Clear CLR 34 21     60% 29   30.15        
Dec 05 01:55 W 3 10 Clear CLR 34 21     60% 31   30.14        
Dec 05 01:35 W 5 10 Clear CLR 34 21     60% 29   30.15        
Dec 05 01:15 WNW 5 10 Clear CLR 34 21     60% 29   30.15        
Dec 05 00:55 WNW 6 10 Clear CLR 34 21     60% 29   30.15        
Dec 05 00:35 WNW 8 10 Partly Cloudy SCT041 34 21     60% 27   30.15        
Dec 05 00:15 WNW 7 10 Clear CLR 34 21     60% 28   30.15        
Dec 04 23:55 WNW 8 10 Clear CLR 36 21     55% 29   30.15        
Dec 04 23:35 WNW 8 10 Clear CLR 36 21     55% 29   30.15        
Dec 04 23:15 NW 8 10 Partly Cloudy SCT041 36 23     60% 29   30.15        
Dec 04 22:55 WNW 8 10 Partly Cloudy SCT041 36 23     60% 29   30.15        
Dec 04 22:35 NW 6 10 Clear CLR 36 23     60% 31   30.15        
Dec 04 22:15 WNW 7 10 Partly Cloudy SCT045 36 23     60% 30   30.15        
Dec 04 21:55 W 6 10 Mostly Cloudy BKN045 36 23     60% 31   30.15        
Dec 04 21:35 Calm 10 Mostly Cloudy BKN045 37 23     56%     30.15        
Dec 04 21:15 WNW 5 10 Partly Cloudy SCT047 37 23     56% 34   30.15        
Dec 04 20:55 W 5 10 Cloudy OVC047 37 23     56% 34   30.15        
Dec 04 20:35 W 5 10 Cloudy OVC047 37 23     56% 34   30.15        
Dec 04 20:15 Calm 10 Cloudy OVC049 37 23     56%     30.14        
Dec 04 19:55 Calm 10 Cloudy OVC049 37 23     56%     30.14        
Dec 04 19:35 Calm 10 Cloudy OVC049 37 23     56%     30.14        
Dec 04 19:15 Calm 10 Cloudy OVC049 37 23     56%     30.14        
Dec 04 18:55 Calm 10 Mostly Cloudy BKN049 37 23     56%     30.14        
Dec 04 18:35 Calm 10 Partly Cloudy SCT049 39 23     52%     30.14        
Dec 04 18:15 Calm 10 Clear CLR 39 23     52%     30.13        
Dec 04 17:55 NW 5 10 Partly Cloudy SCT043 41 23     48% 38   30.13        
Dec 04 17:35 NW 3 10 Mostly Cloudy BKN043 41 23     48% 39   30.12        
Dec 04 17:15 NW 7 10 Mostly Cloudy BKN041 43 25     49% 39   30.12        
Dec 04 16:55 NW 8 10 Mostly Cloudy BKN039 43 23     45% 38   30.11        
Dec 04 16:35 NW 13 10 Mostly Cloudy BKN039 45 23     42% 38   30.11        
Dec 04 16:15 W 9 10 Partly Cloudy SCT039 45 23     42% 40   30.1        
Dec 04 15:55   10 Partly Cloudy SCT039 45 23     42%     30.09        
Dec 04 15:35   10 Partly Cloudy SCT037 45 23     42%     30.08        
Dec 04 15:15 WNW 9 10 Partly Cloudy SCT037 46 23     39% 42   30.07        
Dec 04 14:55 NNW 7 10 Partly Cloudy SCT037 45 25     45% 41   30.08        
Dec 04 14:35 WNW 8 10 Mostly Cloudy BKN037 45 25     45% 40   30.09        
Dec 04 14:15 NW 3 10 Partly Cloudy SCT035 45 25     45% 43   30.09        
Dec 04 13:55   10 Clear CLR 46 25     42%     30.09        
Dec 04 13:35 WNW 11 10 Partly Cloudy SCT034 45 27     49% 39   30.1        
Dec 04 13:15 WNW 6 10 Mostly Cloudy BKN034 46 27     46% 43   30.09        
Dec 04 12:55 NNW 7 10 Partly Cloudy SCT032 45 27     49% 41   30.1        
Dec 04 12:35 NW 9 10 Mostly Cloudy BKN032 46 27     46% 42   30.11        
Dec 04 12:15 NNW 6 10 Mostly Cloudy BKN030 46 27     46% 43   30.12        
Dec 04 11:55 WNW 10 10 Mostly Cloudy BKN030 45 28     53% 39   30.13        
Dec 04 11:35   10 Cloudy OVC028 45 28     53%     30.14        
Dec 04 11:15 WNW 9 10 Cloudy OVC026 43 28     57% 37   30.14        
Dec 04 10:55 NW 6 10 Cloudy OVC026 43 28     57% 39   30.15        
Dec 04 10:35 WNW 9 10 Cloudy OVC026 43 28     57% 37   30.16        
Dec 04 10:15 WNW 8 10 Cloudy OVC026 43 28     57% 38   30.15        
Dec 04 09:55 WNW 9 10 Mostly Cloudy BKN028 43 30     61% 37   30.15        
Dec 04 09:35 NW 5 10 Partly Cloudy SCT023 SCT028 41 30     65% 38   30.14        
Dec 04 09:15 NW 7 10 Partly Cloudy SCT028 41 32     70% 36   30.13        
Dec 04 08:55 Calm 10 Mostly Cloudy BKN028 39 30     70%     30.12        
Dec 04 08:35 WNW 5 10 Partly Cloudy SCT028 37 30     75% 34   30.12        
Dec 04 08:15 WNW 6 10 Clear CLR 37 30     75% 33   30.12        
Dec 04 07:55 NW 5 10 Clear CLR 37 30     75% 34   30.11        
Dec 04 07:35 NW 7 10 Clear CLR 37 30     75% 32   30.11        
Dec 04 07:15 WNW 7 10 Clear CLR 37 30     75% 32   30.09        
Dec 04 06:55 WNW 5 10 Clear CLR 37 30     75% 34   30.09        
Dec 04 06:35 WNW 5 10 Partly Cloudy SCT027 37 30     75% 34   30.08        
Dec 04 06:20 NW 5 10 Partly Cloudy SCT027 37 30     75% 34   30.08        
Dec 04 05:55 NW 6 10 Clear CLR 37 30     75% 33   30.07        
Dec 04 05:35 NW 5 10 Clear CLR 37 32     81% 34   30.08        
Dec 04 05:15 WNW 5 10 Clear CLR 37 32     81% 34   30.07        
Dec 04 04:55 WNW 6 10 Clear CLR 37 32     81% 33   30.06        
Dec 04 04:35 WNW 3 10 Clear CLR 37 32     81% 35   30.06        
Dec 04 04:15 WNW 3 10 Clear CLR 39 30     70% 37   30.06        
Dec 04 03:55 NW 6 10 Clear CLR 39 30     70% 35   30.06        
Dec 04 03:35 NW 9 10 Clear CLR 39 30     70% 33   30.06        
Dec 04 03:15 NW 6 10 Clear CLR 39 30     70% 35   30.06        
Dec 04 02:55 NW 6 10 Clear CLR 39 28     65% 35   30.06        
Dec 04 02:35 NW 7 10 Clear CLR 39 28     65% 34   30.06        
Dec 04 02:15 NW 8 10 Clear CLR 39 28     65% 34   30.06        
Dec 04 01:55 NW 10 10 Clear CLR 41 28     61% 35   30.05        
Dec 04 01:35 NW 10 10 Clear CLR 41 28     61% 35   30.05        
Dec 04 01:15 NW 10 10 Clear CLR 41 28     61% 35   30.05        
Dec 04 00:55 WNW 9 10 Clear CLR 41 28     61% 35   30.05        
Dec 04 00:35 NW 7 10 Clear CLR 41 28     61% 36   30.05        
Dec 04 00:15 NW 7 10 Clear CLR 41 28     61% 36   30.05        
Dec 03 23:55 NW 8 10 Clear CLR 43 28     57% 38   30.05        
Dec 03 23:35 NW 9 10 Clear CLR 43 28     57% 37   30.05        
Dec 03 23:15 NW 9 10 Clear CLR 43 30     61% 37   30.05        
Dec 03 22:55 NW 7 10 Clear CLR 43 30     61% 39   30.05        
Dec 03 22:35 NW 10 10 Clear CLR 45 30     57% 39   30.04        
Dec 03 22:15 NW 8 10 Clear CLR 45 30     57% 40   30.04        
Dec 03 21:55 NW 8 10 Clear CLR 45 32     61% 40   30.04        
Dec 03 21:35 NW 8 10 Clear CLR 46 32     57% 42   30.03        
Dec 03 21:15 NW 9 10 Clear CLR 46 32     57% 42   30.03        
Dec 03 20:55 NW 7 10 Clear CLR 48 32     53% 45   30.02        
Dec 03 20:35 NW 8 10 Clear CLR 50 32     50%     30.02        
Dec 03 20:15 NW 8 10 Clear CLR 50 30     46%     30.01        
Dec 03 19:55 NW 6 10 Clear CLR 50 30     46%     30.01        
Dec 03 19:35 WNW 10 10 Clear CLR 52 30     43%     30        
Dec 03 19:15 WNW 10 10 Clear CLR 52 30     43%     30        
Dec 03 18:55 W 6 10 Clear CLR 54 30     41%     29.99        
Dec 03 18:35 W 7 10 Clear CLR 54 30     41%     29.98        
Dec 03 18:15 W 9 10 Clear CLR 54 32     44%     29.98        
Dec 03 17:55 W 5 10 Clear CLR 54 30     41%     29.97        
Dec 03 17:35 W 7 10 Clear CLR 55 30     38%     29.97        
Dec 03 17:15 W 8 10 Clear CLR 55 30     38%     29.96        
Dec 03 16:55 W 9 10 Clear CLR 57 30     36%     29.96        
Dec 03 16:35 WNW 9 10 Clear CLR 59 30     33%     29.96        
Dec 03 16:15 W 10 10 Clear CLR 59 30     33%     29.95        
Dec 03 15:55 WNW 7 10 Clear CLR 59 30     33%     29.94        
Dec 03 15:35 W 9 10 Clear CLR 59 28     31%     29.94        
Dec 03 15:15 W 7 10 Clear CLR 61        %     29.94        
Dec 03 14:55 W 13 10 Clear CLR 61        %     29.93        
Dec 03 14:35 NW 6 10 Clear CLR 61 30     31%     29.93        
Dec 03 14:15 NW 8 10 Clear CLR 61 30     31%     29.93        
Dec 03 13:55 NW 9 10 Clear CLR 61 28     29%     29.94        
Dec 03 13:35 WNW 3 10 Clear CLR 61 32     34%     29.93        
Dec 03 13:15 W 9 10 Clear CLR 59 32     36%     29.94        
Dec 03 12:55 WNW 10 10 Clear CLR 57 32     38%     29.95        
Dec 03 12:35 W 14 10 Partly Cloudy SCT120 57 32     38%     29.96        
Dec 03 12:15 WNW 13 10 Mostly Cloudy BKN120 57 30     36%     29.97        
Dec 03 11:55 WNW 11 10 Cloudy OVC120 59 30     33%     29.97        
Dec 03 11:35 W 11 10 Mostly Cloudy BKN120 59 30     33%     29.97        
Dec 03 11:15 WNW 6 10 Cloudy OVC120 59 32     36%     29.97        
Dec 03 10:55 W 6 10 Mostly Cloudy BKN120 55 32     41%     29.98        
Dec 03 10:35 WNW 9 10 Partly Cloudy SCT120 55 32     41%     29.98        
Dec 03 10:15 W 5 10 Mostly Cloudy BKN120 55 34     44%     29.97        
Dec 03 09:55 Calm 10 Mostly Cloudy BKN120 54 34     47%     29.97        
Dec 03 09:35 WNW 5 10 Partly Cloudy SCT120 54 34     47%     29.97        
Dec 03 09:15 WNW 5 10 Mostly Cloudy BKN120 52 36     54%     29.96        
Dec 03 08:55 NW 5 10 Mostly Cloudy BKN120 52 36     54%     29.95        
Dec 03 08:35 Calm 10 Partly Cloudy SCT120 52 34     50%     29.94        
Dec 03 08:15 WNW 5 10 Partly Cloudy SCT120 52 34     50%     29.94        
Dec 03 07:55 WNW 5 10 Partly Cloudy SCT120 52 34     50%     29.94        
Dec 03 07:35 Calm 10 Partly Cloudy SCT120 52 32     47%     29.93        
Dec 03 07:15 Calm 10 Clear CLR 52 34     50%     29.92        
Dec 03 06:55 Calm 10 Partly Cloudy SCT120 52 34     50%     29.91        
Dec 03 06:35 WSW 3 10 Partly Cloudy SCT120 48 37     66% 47   29.91        
Dec 03 06:15 Calm 10 Partly Cloudy SCT120 52 34     50%     29.9        
Dec 03 05:55 Calm 10 Partly Cloudy SCT120 45 39     81%     29.89        
Dec 03 05:35 Calm 10 Partly Cloudy SCT120 45 39     81%     29.89        
Dec 03 05:15 Calm 10 Partly Cloudy SCT120 46 41     81%     29.89        
Dec 03 04:55 Calm 10 Partly Cloudy SCT120 48 37     66%     29.89        
Dec 03 04:35 Calm 10 Cloudy OVC120 50 37     62%     29.9        
Dec 03 04:15 Calm 10 Mostly Cloudy BKN120 43 39     87%     29.9        
Dec 03 03:55 Calm 10 Partly Cloudy SCT120 45 41     87%     29.9        
Dec 03 03:35 Calm 10 Clear CLR 45 37     76%     29.89        
Dec 03 03:15 Calm 10 Clear CLR 45 39     81%     29.89        
Dec 03 02:55 Calm 10 Clear CLR 46 39     76%     29.88        
Dec 03 02:35 Calm 10 Clear CLR 46 41     81%     29.88        
Dec 03 02:15 Calm 10 Clear CLR 45 39     81%     29.88        
Dec 03 01:55 Calm 10 Clear CLR 46 41     81%     29.88        
Dec 03 01:35 Calm 10 Clear CLR 52 36     54%     29.88        
Dec 03 01:15 Calm 10 Clear CLR 50 41     71%     29.88        
Dec 03 00:55 Calm 10 Clear CLR 48 41     76%     29.88        
Notice The following observation data may not be complete
Dec 03 00:35 Calm 10 Clear CLR   37      %     29.87        
Notice The following observation data may not be complete
Dec 03 00:15 Calm 10 Clear CLR   36      %     29.87        
Notice The following observation data may not be complete
Dec 02 23:55 Calm 10 Clear CLR   34      %     29.87        
Dec 02 23:35 Calm 10 Clear CLR 54 36     50%     29.87        
Dec 02 23:15 Calm 10 Clear CLR 55 34     44%     29.87        
Dec 02 22:55 Calm 10 Clear CLR 57 34     41%     29.87        
Dec 02 22:35 Calm 10 Clear CLR 57 34     41%     29.87        
Dec 02 22:15 W 3 10 Clear CLR 55 37     51%     29.87        
Dec 02 21:55 Calm 10 Clear CLR 52 39     62%     29.86        
Dec 02 21:35 Calm 10 Clear CLR 55 37     51%     29.86        
Dec 02 21:15 Calm 10 Clear CLR 59 34     39%     29.86        
Dec 02 20:55 W 3 10 Clear CLR 59 34     39%     29.85        
Dec 02 20:35 Calm 10 Clear CLR 63 32     32%     29.85        
Dec 02 20:15 WSW 3 10 Clear CLR 63        %     29.85        
Notice The following observation data may not be complete
Dec 02 19:55 W 5 10 Clear CLR          %     29.84        
Dec 02 19:35 W 5 10 Clear CLR 63 32     32%     29.83        
Dec 02 19:15 W 5 10 Clear CLR 64 32     30%     29.83        
Dec 02 18:55 W 5 10 Clear CLR 64 30     28%     29.82        
Dec 02 18:35 W 3 10 Clear CLR 64 30     28%     29.82        
Dec 02 18:15 WSW 5 10 Clear CLR 66 30     26%     29.81        
Dec 02 17:55 WSW 5 10 Clear CLR 68        %     29.8        
Dec 02 17:35 WSW 3 10 Clear CLR 68        %     29.8        
Dec 02 17:15 WSW 6 10 Clear CLR 70        %     29.79        
Dec 02 16:55 WSW 8 10 Clear CLR 72        %     29.79        
Dec 02 16:35 WSW 6 10 Clear CLR 72        %     29.78        
Dec 02 16:15 WSW 7 10 Clear CLR 72        %     29.78        
Dec 02 15:55 W 9 10 Clear CLR 72        %     29.76        
Dec 02 15:35 WSW 8 10 Clear CLR 72 30     22%   69 29.76        
Dec 02 15:15 WSW 10 10 Clear CLR 72        %     29.76        
Dec 02 14:55 W 9 10 Clear CLR 72        %     29.76        
Dec 02 14:35 W 8 10 Clear CLR 72        %     29.76        
Dec 02 14:15 SW 8 10 Clear CLR 72        %     29.76        
Dec 02 13:55 WSW 13 10 Clear CLR 72        %     29.77        
Dec 02 13:35 W 8 10 Clear CLR 72        %     29.77        
Dec 02 13:15 SW 10 10 Clear CLR 72        %     29.78        
Dec 02 12:55 WSW 7 10 Clear CLR 70        %     29.79        
Dec 02 12:35 SW 8 10 Clear CLR 70        %     29.79        
Dec 02 12:15 WSW 9 10 Clear CLR 70        %     29.8        
Dec 02 11:55 SW 11 10 Clear CLR 70        %     29.81        
Dec 02 11:35 W 7 10 Clear CLR 70 46     43%     29.83        
Dec 02 11:15 W 7 10 Clear CLR 68 52     56%     29.83        
Dec 02 10:55 W 6 10 Clear CLR 68 48     49%     29.82        
Dec 02 10:35 Calm 10 Partly Cloudy SCT065 66 50     56%     29.82        
Dec 02 10:15 W 3 10 Cloudy OVC065 63 61     94%     29.82        
Notice The following observation data may not be complete
Dec 02 09:55 W 6 10 Mostly Cloudy SCT001 BKN065          %     29.81        
Notice The following observation data may not be complete
Dec 02 09:35 Calm 1.25 Fog/Mist BKN001 BKN095          %     29.8        
Notice The following observation data may not be complete
Dec 02 09:15 Calm 0.25 Fog OVC003          %     29.79        
Notice The following observation data may not be complete
Dec 02 08:55 Calm 0.25 Fog OVC003          %     29.78        
Notice The following observation data may not be complete
Dec 02 08:35 Calm 0.25 Fog OVC003          %     29.78        
Notice The following observation data may not be complete
Dec 02 08:15 Calm 0.25 Fog OVC003          %     29.79        
Notice The following observation data may not be complete
Dec 02 07:55 Calm 0.25 Fog OVC003          %     29.78        
Notice The following observation data may not be complete
Dec 02 07:35 Calm 0.75 Fog/Mist OVC003          %     29.77        
Notice The following observation data may not be complete
Dec 02 07:15 Calm 0.25 Fog OVC003          %     29.75        
Notice The following observation data may not be complete
Dec 02 06:55 Calm 0.5 Fog OVC003          %     29.74        
Notice The following observation data may not be complete
Dec 02 06:35 Calm 0.5 Fog OVC003          %     29.74        
Notice The following observation data may not be complete
Dec 02 06:15 Calm 0.75 Fog/Mist OVC003          %     29.73        
Notice The following observation data may not be complete
Dec 02 05:55 Calm 2.5 Fog/Mist OVC003          %     29.73        
Notice The following observation data may not be complete
Dec 02 05:35 Calm 5 Haze OVC003          %     29.73        
Notice The following observation data may not be complete
Dec 02 05:15 Calm 10 Cloudy OVC003          %     29.72        
Notice The following observation data may not be complete
Dec 02 04:55 ENE 3 10 Cloudy OVC003          %     29.74        
Notice The following observation data may not be complete
Dec 02 04:35 Calm 7 Cloudy OVC003          %     29.74        
Notice The following observation data may not be complete
Dec 02 04:15 E 3 10 Cloudy OVC003          %     29.74        
Notice The following observation data may not be complete
Dec 02 03:55 Calm 10 Cloudy OVC005          %     29.74        
Notice The following observation data may not be complete
Dec 02 03:35 Calm 10 Cloudy OVC005          %     29.74        
Notice The following observation data may not be complete
Dec 02 03:15 Calm 10 Cloudy OVC005          %     29.74        
Notice The following observation data may not be complete
Dec 02 02:55 Calm 1 Fog/Mist OVC005          %     29.75        
Notice The following observation data may not be complete
Dec 02 02:35 Calm 7 Cloudy OVC005          %     29.75        
Notice The following observation data may not be complete
Dec 02 02:15 Calm 7 Cloudy OVC007          %     29.75        
Notice The following observation data may not be complete
Dec 02 01:55 E 5 5 Haze BKN003 OVC011          %     29.75        
Notice The following observation data may not be complete
Dec 02 01:35 E 3 2.5 Light Rain OVC003          %     29.74        
Notice The following observation data may not be complete
Dec 02 01:15 Calm 1 Drizzle OVC003          %     29.74        
Notice The following observation data may not be complete
Dec 02 00:55 ENE 3 1.5 Light Drizzle OVC003          %     29.75        
Notice The following observation data may not be complete
Dec 02 00:35 E 3 1.5 Light Rain OVC003          %     29.74        
Notice The following observation data may not be complete
Dec 02 00:15 E 6 1.75 Light Rain OVC003          %     29.74        
Notice The following observation data may not be complete
Dec 01 23:55 E 3 2.5 Light Rain OVC003          %     29.75        
Notice The following observation data may not be complete
Dec 01 23:35 Calm 2.5 Fog/Mist OVC003          %     29.76        
Notice The following observation data may not be complete
Dec 01 23:15 E 7 3 Light Drizzle OVC003          %     29.76        
Notice The following observation data may not be complete
Dec 01 22:55 E 9 3 Drizzle OVC003          %     29.77        
Notice The following observation data may not be complete
Dec 01 22:35 E 3 3 Light Drizzle OVC003          %     29.77        
Notice The following observation data may not be complete
Dec 01 22:15 ENE 6 3 Rain OVC003          %     29.76        
Notice The following observation data may not be complete
Dec 01 21:55 E 6 5 Haze OVC003          %     29.76        
Notice The following observation data may not be complete
Dec 01 21:35 E 8 4 Rain OVC003          %     29.76        
Notice The following observation data may not be complete
Dec 01 21:15 ENE 7 3 Light Rain OVC003          %     29.77        
Notice The following observation data may not be complete
Dec 01 20:55 E 7 3 Fog/Mist OVC003          %     29.77        
Notice The following observation data may not be complete
Dec 01 20:35 ENE 5 3 Light Rain OVC003          %     29.78        
Notice The following observation data may not be complete
Dec 01 20:15 E 7 2.5 Rain OVC003          %     29.78        
Notice The following observation data may not be complete
Dec 01 19:55 ESE 5 4 Haze OVC003          %     29.79        
Notice The following observation data may not be complete
Dec 01 19:35 ENE 6 3 Fog/Mist OVC003          %     29.78        
Dec 01 19:15 ENE 7 10 Light Drizzle OVC003 55 54     94%     29.79        
Dec 01 18:55 ENE 8 10 Cloudy OVC003 55 54     94%     29.78        
Dec 01 18:35 ENE 8 5 Light Rain OVC003 55 54     94%     29.78        
Dec 01 18:15 E 6 2.5 Heavy Rain OVC003 55 54     94%     29.78        
Dec 01 17:55 Calm 3 Rain OVC003 55 54     94%     29.79        
Dec 01 17:35 ENE 8 3 Fog/Mist OVC003 55 54     94%     29.79        
Dec 01 17:15 ENE 3 5 Light Rain OVC003 55 54     94%     29.79        
Dec 01 16:55 ENE 6 5 Light Rain OVC003 55 54     94%     29.79        
Dec 01 16:35 E 7 4 Rain BKN003 BKN009 OVC014 55 54     94%     29.79        
Dec 01 16:15 ESE 9 0.75 Heavy Rain OVC003 55 54     94%     29.8        
Dec 01 15:55 E 8 7 Cloudy OVC003 54 54     100%     29.77        
Dec 01 15:35 ENE 10 4 Fog/Mist OVC003 54 54     100%     29.77        
Dec 01 15:15 E 9 5 Fog/Mist OVC003 54 54     100%     29.79        
Dec 01 14:55 ENE 6 5 Rain OVC003 54 54     100%     29.79        
Dec 01 14:35 E 7 4 Light Rain OVC003 54 54     100%     29.8        
Dec 01 14:15 E 6 7 Cloudy OVC003 54 54     100%     29.82        
Dec 01 13:55 E 5 5 Fog/Mist OVC003 54 52     94%     29.82        
Dec 01 13:35 E 6 4 Drizzle OVC003 54 52     94%     29.83        
Dec 01 13:15 ENE 7 5 Drizzle OVC003 54 52     94%     29.84        
Dec 01 12:55 ENE 8 4 Drizzle OVC003 54 52     94%     29.85        
Dec 01 12:35 E 8 3 Heavy Rain OVC003 54 52     94%     29.86        
Dec 01 12:15 E 8 3 Heavy Rain OVC003 54 52     94%     29.87        
Dec 01 11:55 E 6 4 Rain OVC003 54 52     94%     29.89        
Dec 01 11:35 ENE 6 5 Rain OVC003 54 52     94%     29.9        
Dec 01 11:15 ENE 9 1.5 Heavy Rain OVC003 54 52     94%     29.92        
Dec 01 10:55 E 9 2 Rain OVC003 54 52     94%     29.92        
Dec 01 10:35 E 8 3 Rain OVC005 54 52     94%     29.94        
Dec 01 10:15 ENE 7 1.5 Heavy Rain OVC002 54 52     94%     29.95        
Dec 01 09:55 ENE 9 5 Rain OVC002 52 50     94%     29.94        
Dec 01 09:35 ENE 9 1.5 Heavy Rain OVC002 52 50     94%     29.94        
Dec 01 09:15 ENE 6 2 Rain OVC002 52 50     94%     29.97        
Dec 01 08:55 ENE 3 2 Heavy Rain OVC004 52 50     94%     29.98        
Dec 01 08:35 ENE 3 3 Heavy Rain BKN006 OVC010 52 50     94%     29.99        
Dec 01 08:15 ENE 6 2.5 Heavy Rain SCT006 OVC014 52 50     94%     29.97        
Dec 01 07:55 ENE 6 3 Heavy Rain OVC016 52 50     94%     29.95        
Dec 01 07:35 E 5 4 Rain BKN020 BKN033 OVC080 52 48     87%     29.98        
Dec 01 07:15 E 3 5 Rain BKN020 BKN050 OVC095 52 48     87%     29.97        
Dec 01 06:55 E 6 5 Rain SCT036 SCT070 OVC095 52 48     87%     29.97        
Dec 01 06:35 E 6 7 Rain OVC036 52 48     87%     29.97        
Dec 01 06:15 ENE 3 4 Rain OVC038 52 48     87%     29.97        
Dec 01 05:55 E 7 5 Rain OVC040 54 46     77%     29.97        
Dec 01 05:35 ESE 3 10 Rain OVC044 54 46     77%     29.97        
Dec 01 05:15 ESE 6 10 Cloudy OVC044 54 46     77%     29.98        
Dec 01 04:55 ESE 6 10 Cloudy SCT044 BKN090 OVC120 54 46     77%     29.96        
Dec 01 04:35 E 6 10 Mostly Cloudy SCT048 BKN080 BKN090 54 48     82%     29.96        
Dec 01 04:15 E 6 10 Cloudy SCT050 BKN080 OVC090 54 48     82%     29.98        
Dec 01 03:55 ENE 3 10 Cloudy OVC070 54 50     88%     29.98        
Dec 01 03:35 E 5 10 Cloudy OVC070 54 50     88%     29.99        
Dec 01 03:15 E 3 10 Cloudy OVC070 55 50     82%     30        
Dec 01 02:55 Calm 10 Cloudy OVC070 55 52     88%     30        
Dec 01 02:35 E 3 10 Cloudy OVC070 55 52     88%     30.02        
Dec 01 02:15 ENE 5 10 Cloudy SCT075 OVC085 55 52     88%     30.01        
Dec 01 01:55 E 3 10 Cloudy BKN075 OVC085 55 52     88%     30.02        
Dec 01 01:35 E 3 10 Cloudy OVC075 55 54     94%     30.03        
Dec 01 01:15 Calm 10 Cloudy BKN075 OVC095 55 54     94%     30.03        
Dec 01 00:55 Calm 10 Cloudy BKN075 OVC095 55 54     94%     30.03        
Dec 01 00:35 Calm 10 Cloudy OVC075 55 54     94%     30.04        
Dec 01 00:15 ENE 3 10 Light Rain OVC065 55 54     94%     30.04        
Nov 30 23:55 Calm 10 Cloudy OVC065 55 54     94%     30.05        
Nov 30 23:35 Calm 10 Cloudy OVC065 57 54     88%     30.05        
Nov 30 23:15 ENE 5 10 Cloudy OVC065 57 54     88%     30.05        
Nov 30 22:55 Calm 10 Cloudy OVC065 57 55     94%     30.06        
Nov 30 22:35 ENE 3 10 Cloudy OVC065 57 55     94%     30.06        
Nov 30 22:15 Calm 7 Light Rain OVC065 57 55     94%     30.07        
Nov 30 21:55 Calm 10 Light Rain BKN065 BKN075 OVC110 57 55     94%     30.07        
Nov 30 21:35 Calm 7 Light Rain SCT065 BKN085 OVC110 59 55     88%     30.07        
Nov 30 21:15 Calm 10 Light Rain SCT075 OVC090 59 54     82%     30.08        
Nov 30 20:55 Calm 10 Cloudy BKN065 OVC080 59 55     88%     30.07        
Nov 30 20:35 Calm 10 Cloudy SCT060 BKN070 OVC110 59 55     88%     30.07        
Nov 30 20:15 Calm 10 Light Rain OVC110 59 55     88%     30.08        
Nov 30 19:55 Calm 3 Light Rain OVC110 59 55     88%     30.07        
Nov 30 19:35 Calm 7 Light Rain OVC110 59 54     82%     30.07        
Nov 30 19:15 Calm 10 Light Rain OVC110 61 54     77%     30.07        
Nov 30 18:55 Calm 10 Light Rain SCT044 SCT060 OVC110 61 54     77%     30.07        
Nov 30 18:35 Calm 10 Rain BKN043 BKN060 OVC090 63 52     68%     30.07        
Nov 30 18:15 S 3 10 Drizzle BKN060 BKN070 OVC090 63 52     68%     30.07        
Nov 30 17:55 Calm 10 Drizzle BKN050 OVC060 64 50     60%     30.06        
Nov 30 17:35 Calm 10 Cloudy OVC055 64 50     60%     30.06        
Nov 30 17:15 Calm 10 Cloudy OVC049 64 52     64%     30.06        
Nov 30 16:55 Calm 10 Cloudy OVC049 64 52     64%     30.06        
Nov 30 16:35 Calm 10 Cloudy OVC047 66 52     60%     30.05        
Nov 30 16:15 Calm 10 Cloudy BKN045 OVC110 66 52     60%     30.04        
Nov 30 15:55 Calm 10 Mostly Cloudy SCT045 SCT095 BKN120 66 50     56%     30.04        
Nov 30 15:35 Calm 10 Clear CLR 66 54     64%     30.03        
Nov 30 15:15 Calm 10 Partly Cloudy SCT070 66 54     64%     30.03        
Nov 30 14:55 Calm 10 Mostly Cloudy SCT050 BKN070 66 54     64%     30.03        
Nov 30 14:35 Calm 10 Mostly Cloudy BKN050 BKN060 64 55     73%     30.04        
Nov 30 14:15 Calm 10 Cloudy SCT042 OVC049 64 55     73%     30.05        
Nov 30 13:55 Calm 10 Cloudy BKN042 OVC049 63 54     72%     30.05        
Nov 30 13:35 Calm 10 Cloudy OVC042 63 55     77%     30.06        
Nov 30 13:15 Calm 10 Cloudy OVC042 63 55     77%     30.06        
Nov 30 12:55 Calm 10 Cloudy BKN040 BKN047 OVC060 61 55     82%     30.06        
Nov 30 12:35 Calm 10 Cloudy SCT037 BKN044 OVC049 59 55     88%     30.08        
Nov 30 12:15 SSE 3 10 Cloudy BKN038 BKN046 OVC100 59 55     88%     30.08        
Nov 30 11:55 Calm 10 Cloudy BKN034 OVC100 57 55     94%     30.1        
Nov 30 11:35 Calm 10 Cloudy SCT015 OVC034 55 55     100%     30.11        
Nov 30 11:15 Calm 4 Fog/Mist SCT017 OVC032 55 54     94%     30.12        
Nov 30 10:55 Calm 7 Cloudy SCT001 OVC015 54 52     94%     30.12        
Nov 30 10:35 Calm 0.75 Fog/Mist BKN001 BKN007 OVC015 54 52     94%     30.13        
Nov 30 10:15 Calm 1.5 Fog/Mist OVC015 52 50     94%     30.13        
Nov 30 09:55 Calm 1.25 Fog/Mist OVC013 52 50     94%     30.12        
Nov 30 09:35 Calm 1.5 Fog/Mist OVC013 52 50     94%     30.12        
Nov 30 09:15 Calm 2 Fog/Mist OVC013 50 50     100%     30.11        
Nov 30 08:55 Calm 2.5 Rain OVC011 50 48     94%     30.11        
Nov 30 08:35 Calm 2.5 Light Rain OVC011 50 46     87%     30.11        
Nov 30 08:15 Calm 4 Fog/Mist OVC011 50 46     87%     30.11        
Nov 30 07:55 Calm 3 Light Rain OVC011 50 46     87%     30.11        
Nov 30 07:35 Calm 5 Drizzle OVC013 50 46     87%     30.11        
Nov 30 07:15 Calm 5 Light Rain OVC013 50 46     87%     30.1        
May 15 14:55 ESE 11 10 Mostly Cloudy SCT028 BKN032 BKN120 82        %     30.01        
May 15 13:55 ENE 6 10 Partly Cloudy SCT120 81 63     54%   82 30.03        
May 15 07:35 Calm 10 Mostly Cloudy SCT027 BKN036 BKN070 70 63     78%     30.07        
May 14 21:35 Calm 10 Clear CLR 81        %     30        
May 14 20:15 Calm 10 Clear CLR 84        %     30        
May 14 11:55 WNW 5 10 Clear CLR 86        %     30.08        
Notice The following observation data may not be complete
May 14 09:55 Calm 10 Clear CLR   61      %     30.09        
May 14 08:35 Calm 10 Clear CLR 68 63     83%     30.09        
May 14 05:35 Calm 7 Clear CLR 63 61     94%     30.05        
May 14 00:35 Calm 10 Clear CLR 70 61     73%              
May 13 20:55 Calm 10 Clear CLR 79 59     51%   79 30.08        
May 13 13:15 WNW 10 10 Clear   86        %     30.15        
May 13 05:55 Calm 10 Clear CLR 59 54     82%     30.13        
May 13 05:15 Calm 10 Clear CLR 61 57     88%     30.12        
May 13 01:15 Calm 10 Clear CLR 63 55     77%     30.12        
May 12 18:15 WNW 5 10 Clear CLR 88        %     30.13        
May 12 14:35 W 3 10 Clear CLR 88        %     30.17        
May 12 08:15 Calm 7 Clear CLR 64 61     88%     30.2        
May 12 07:35 Calm 7 Clear CLR 63 61     94%     30.19        
May 12 04:35 Calm 4 Clear   63 61     94%     30.15        
May 11 21:55 Calm 10 Clear CLR 72 63     73%   72 30.13        
Notice The following observation data may not be complete
May 11 20:55 Calm 10 Clear CLR          %     30.12        
May 11 19:55 Calm 10 Clear CLR 82        %     30.11        
May 11 19:35 Calm 10 Clear CLR 84        %     30.11        
May 11 14:35 Calm 10 Clear CLR 86        %     30.14        
May 11 11:35 WNW 8 10 Clear CLR 81        %     30.18        
May 11 09:55 Calm 10 Clear CLR 73 63     69%   74 30.17        
Jun 12 08:55 Calm 10 Cloudy BKN008 OVC012 72 66     83%   72 30.25        
Jun 12 02:35 Calm 10 Clear CLR 73 64     73%   74 30.21        
Jun 11 23:35 E 3 10 Mostly Cloudy SCT029 BKN049 77 63     61%   77 30.21        
Jun 11 22:55 ESE 3 10 Partly Cloudy SCT049 77        %     30.21        
Jun 11 19:55 Calm 10 Partly Cloudy SCT055 82        %     30.17        
Jun 11 16:15 E 8 10 Partly Cloudy SCT038 88        %     30.2        
Jun 11 15:15 E 6 10 Mostly Cloudy SCT037 SCT042 BKN055 86        %     30.22        
Jun 11 07:35 Calm 10 Partly Cloudy SCT008 64 61     88%     30.21        
Jun 10 23:15 Calm 10 Clear CLR 73        %     30.18        
Jun 10 22:35 Calm 10 Clear CLR 75        %     30.16        
Jun 10 19:55 Calm 10 Mostly Cloudy BKN060 BKN075 82        %     30.11        
Jun 10 19:35 Calm 10 Partly Cloudy SCT060 81        %     30.1        
Jun 10 16:15 ENE 5 10 Partly Cloudy SCT055 SCT080 86        %     30.12        
Jun 10 11:35 Calm 10 Partly Cloudy SCT070 79        %     30.15        
Jun 10 11:15 Calm 10 Partly Cloudy SCT060 SCT070 77        %     30.16        
Jun 10 10:55 Calm 10 Mostly Cloudy SCT050 BKN070 77        %     30.16        
Jun 10 05:55 Calm 5 Fog/Mist CLR 59 55     88%     30.07        
Jun 10 05:15 Calm 5 Fog/Mist CLR 59 55     88%     30.06        
Jun 09 18:15 WNW 7 10 Clear CLR 81 46     30%   80 29.97        
Notice The following observation data may not be complete
Jun 09 15:35   10 Partly Cloudy SCT070          %              
Notice The following observation data may not be complete
Jun 09 15:15   10 Clear CLR          %              
Jun 09 14:55 WNW 3 10 Clear CLR 81        %     30        
Jun 09 09:55 Calm 10 Clear CLR 70 55     60%     30.02        
Jun 09 06:15 Calm 5 Fog/Mist CLR 59 55     88%     29.97        
Jun 08 23:35 Calm 10 Clear CLR 66 59     78%     29.93        
Jun 08 13:35 SSW 3 10 Partly Cloudy SCT036 SCT060 SCT085 75 48     38%   74 29.95        
Jun 08 12:35 ENE 3 10 Partly Cloudy SCT031 SCT041 SCT050 73        %     29.96        
Jun 08 10:15 ENE 7 10 Partly Cloudy SCT016 SCT100 70 54     56%     29.97        
Jun 08 09:35 ENE 5 10 Partly Cloudy SCT012 68 54     60%     29.97        
Jun 07 23:35 Calm 10 Light Drizzle SCT037 SCT042 OVC050 66 59     78%     29.91        
Jun 07 22:55 Calm 10 Cloudy BKN036 BKN055 OVC070 68 55     64%     29.91        
Jun 07 19:55 E 5 10 Mostly Cloudy SCT050 BKN075 77 52     41%   76 29.86        
Jun 07 16:15 Calm 10 Mostly Cloudy SCT060 BKN090 77 52     41%   76 29.85        
Jun 07 13:35 E 3 10 Clear CLR 79        %     29.86        
Notice The following observation data may not be complete
Jun 07 09:35   10 Mostly Cloudy BKN060 BKN070          %              
Jun 06 15:15 WNW 3 10 Clear CLR 79 61     54%   79 29.8        
Jun 06 06:35 Calm 1.25 Fog/Mist BKN009 70 66     88%     29.84        
Jun 06 05:55 Calm 1.5 Light Rain SCT005 BKN120 70 68     94%     29.84        
Notice The following observation data may not be complete
Jun 06 04:35   5 Fog/Mist OVC003          %              
Notice The following observation data may not be complete
Jun 06 03:35   7 Partly Cloudy SCT003 SCT080 SCT120          %              
Jun 06 01:35 Calm 7 Partly Cloudy SCT120 70 68     94%     29.86        
Jun 05 22:55 W 3 10 Clear   72 68     88%   73 29.87